Location: Izdebno
(52.6670°N, 16.2170°E)
Time: 14:27:41
(UTC+01:00)

Vanguard 2 - Pass Details

Date: 08 February 2023
Orbit: 553 x 2927 km, 32.9° (Epoch: 24 March)

Event Time Altitude Azimuth Distance (km) Brightness Sun altitude
Rises 03:18:41 0° 268° (W) 6,586 - -37.2°
Reaches altitude 10° 03:27:01 10° 245° (WSW) 5,748 - -36.0°
Maximum altitude 03:33:06 13° 225° (SW) 5,496 - -35.2°
Drops below altitude 10° 03:39:06 10° 204° (SSW) 5,607 - -34.3°
Exits shadow 03:43:01 - 191° (SSW) 5,867 11.7 -33.8°
Sets 03:47:05 0° 180° (S) 6,270 12.0 -33.2°
